Time,TemperatureF,DewpointF,PressureIn,WindDirection,WindDirectionDegrees,WindSpeedMPH,WindSpeedGustMPH,Humidity,HourlyPrecipIn,Conditions,Clouds,dailyrainin,SoftwareType,DateUTC
2013-07-11 01:02:00,69.0,52.0,30.30,SW,224,1.0,8.0,55,0.00,,,0.00,,2013-07-11 08:02:00,
2013-07-11 01:11:00,69.0,52.0,30.30,SW,224,1.0,8.0,55,0.00,,,0.00,,2013-07-11 08:11:00,
2013-07-11 01:22:00,69.0,53.0,30.29,SW,236,5.0,9.0,56,0.00,,,0.00,,2013-07-11 08:22:00,
2013-07-11 01:33:00,70.0,54.0,30.28,SW,235,3.0,11.0,57,0.00,,,0.00,,2013-07-11 08:33:00,
2013-07-11 01:42:00,70.0,54.0,30.28,SW,235,3.0,11.0,57,0.00,,,0.00,,2013-07-11 08:42:00,
2013-07-11 01:53:00,70.0,55.0,30.27,WSW,241,5.0,10.0,58,0.00,,,0.00,,2013-07-11 08:53:00,
2013-07-11 02:02:00,70.0,55.0,30.26,WSW,241,7.0,15.0,59,0.00,,,0.00,,2013-07-11 09:02:00,
2013-07-11 02:12:00,70.0,55.0,30.26,WSW,241,7.0,15.0,59,0.00,,,0.00,,2013-07-11 09:12:00,
2013-07-11 02:21:00,70.0,55.0,30.26,WSW,241,7.0,15.0,59,0.00,,,0.00,,2013-07-11 09:21:00,
2013-07-11 02:33:00,70.0,55.0,30.26,WSW,241,7.0,15.0,59,0.00,,,0.00,,2013-07-11 09:33:00,
2013-07-11 02:43:00,70.0,55.0,30.25,WSW,244,9.0,15.0,59,0.00,,,0.00,,2013-07-11 09:43:00,
2013-07-11 02:53:00,70.0,55.0,30.24,WSW,254,7.0,15.0,59,0.00,,,0.00,,2013-07-11 09:53:00,
2013-07-11 03:01:00,70.0,55.0,30.24,WSW,254,7.0,15.0,59,0.00,,,0.00,,2013-07-11 10:01:00,
2013-07-11 03:11:00,70.0,55.0,30.24,SSW,211,6.0,10.0,60,0.00,,,0.00,,2013-07-11 10:11:00,
2013-07-11 03:21:00,69.0,55.0,30.24,SSW,204,4.0,11.0,60,0.00,,,0.00,,2013-07-11 10:21:00,
2013-07-11 03:33:00,69.0,55.0,30.24,SSW,204,4.0,11.0,60,0.00,,,0.00,,2013-07-11 10:33:00,
2013-07-11 03:42:00,68.0,55.0,30.25,SW,226,7.0,18.0,63,0.00,,,0.00,,2013-07-11 10:42:00,
2013-07-11 03:52:00,68.0,55.0,30.25,SW,226,7.0,18.0,63,0.00,,,0.00,,2013-07-11 10:52:00,
2013-07-11 04:01:00,68.0,55.0,30.26,SW,235,8.0,18.0,64,0.00,,,0.00,,2013-07-11 11:01:00,
2013-07-11 04:22:00,67.0,55.0,30.26,SW,232,8.0,14.0,66,0.00,,,0.00,,2013-07-11 11:22:00,
2013-07-11 04:32:00,67.0,56.0,30.26,SW,234,7.0,14.0,67,0.00,,,0.00,,2013-07-11 11:32:00,
2013-07-11 04:42:00,67.0,56.0,30.26,SW,234,7.0,14.0,67,0.00,,,0.00,,2013-07-11 11:42:00,
2013-07-11 04:53:00,67.0,56.0,30.26,SW,234,7.0,14.0,67,0.00,,,0.00,,2013-07-11 11:53:00,
2013-07-11 05:01:00,67.0,56.0,30.28,SW,226,9.0,19.0,68,0.00,,,0.00,,2013-07-11 12:01:00,
2013-07-11 05:12:00,67.0,56.0,30.29,SW,229,9.0,19.0,69,0.00,,,0.00,,2013-07-11 12:12:00,
2013-07-11 05:22:00,67.0,56.0,30.29,SW,229,9.0,19.0,69,0.00,,,0.00,,2013-07-11 12:22:00,
2013-07-11 05:33:00,67.0,56.0,30.29,SW,229,9.0,19.0,69,0.00,,,0.00,,2013-07-11 12:33:00,
2013-07-11 05:42:00,67.0,57.0,30.28,SW,236,5.0,15.0,70,0.00,,,0.00,,2013-07-11 12:42:00,
2013-07-11 05:53:00,67.0,57.0,30.28,WSW,245,9.0,17.0,70,0.00,,,0.00,,2013-07-11 12:53:00,
2013-07-11 06:00:00,67.0,56.0,30.26,WSW,248,10.0,18.0,69,0.00,,,0.00,,2013-07-11 13:00:00,
2013-07-11 06:11:00,67.0,57.0,30.28,WSW,245,9.0,17.0,70,0.00,,,0.00,,2013-07-11 13:11:00,
2013-07-11 06:22:00,67.0,56.0,30.26,WSW,248,10.0,18.0,69,0.00,,,0.00,,2013-07-11 13:22:00,
2013-07-11 06:33:00,67.0,56.0,30.26,WSW,248,10.0,18.0,69,0.00,,,0.00,,2013-07-11 13:33:00,
2013-07-11 07:23:00,69.0,57.0,30.26,SW,226,7.0,14.0,66,0.00,,,0.00,,2013-07-11 14:23:00,
2013-07-11 07:35:00,69.0,57.0,30.26,SW,226,7.0,14.0,66,0.00,,,0.00,,2013-07-11 14:35:00,
2013-07-11 07:44:00,69.0,57.0,30.25,WSW,244,8.0,17.0,65,0.00,,,0.00,,2013-07-11 14:44:00,
2013-07-11 07:53:00,69.0,57.0,30.26,SW,216,4.0,17.0,65,0.00,,,0.00,,2013-07-11 14:53:00,
2013-07-11 08:01:00,70.0,57.0,30.26,SW,214,5.0,11.0,63,0.00,,,0.00,,2013-07-11 15:01:00,
2013-07-11 08:12:00,70.0,57.0,30.26,SW,214,5.0,11.0,63,0.00,,,0.00,,2013-07-11 15:12:00,
2013-07-11 08:22:00,70.0,57.0,30.26,SW,214,5.0,11.0,63,0.00,,,0.00,,2013-07-11 15:22:00,
2013-07-11 08:33:00,70.0,57.0,30.26,SW,214,5.0,11.0,63,0.00,,,0.00,,2013-07-11 15:33:00,
2013-07-11 08:44:00,72.0,58.0,30.26,SW,224,7.0,19.0,62,0.00,,,0.00,,2013-07-11 15:44:00,
2013-07-11 09:04:00,73.0,58.0,30.27,SSW,212,5.0,11.0,59,0.00,,,0.00,,2013-07-11 16:04:00,
2013-07-11 10:01:00,73.0,59.0,30.27,SSW,196,8.0,15.0,61,0.00,,,0.00,,2013-07-11 17:01:00,
2013-07-11 10:33:00,73.0,57.0,30.29,SW,215,11.0,20.0,58,0.00,,,0.00,,2013-07-11 17:33:00,
2013-07-11 10:44:00,73.0,57.0,30.29,SW,215,11.0,20.0,58,0.00,,,0.00,,2013-07-11 17:44:00,
2013-07-11 10:52:00,73.0,57.0,30.28,SW,215,10.0,18.0,57,0.00,,,0.00,,2013-07-11 17:52:00,
2013-07-11 11:01:00,76.0,57.0,30.27,SSW,200,8.0,19.0,52,0.00,,,0.00,,2013-07-11 18:01:00,
2013-07-11 11:02:00,75.0,58.0,30.28,WSW,237,6.0,19.0,55,0.00,,,0.00,,2013-07-11 18:02:00,
2013-07-11 11:13:00,75.0,58.0,30.28,WSW,237,6.0,19.0,55,0.00,,,0.00,,2013-07-11 18:13:00,
2013-07-11 11:22:00,76.0,57.0,30.27,SSW,200,8.0,19.0,52,0.00,,,0.00,,2013-07-11 18:22:00,
2013-07-11 11:44:00,76.0,57.0,30.27,SSW,200,8.0,19.0,52,0.00,,,0.00,,2013-07-11 18:44:00,
2013-07-11 12:39:00,77.0,56.0,30.26,SW,217,6.0,19.0,48,0.00,,,0.00,,2013-07-11 19:39:00,
2013-07-11 12:46:00,77.0,56.0,30.26,SW,217,6.0,19.0,48,0.00,,,0.00,,2013-07-11 19:46:00,
2013-07-11 12:57:00,77.0,56.0,30.26,SW,217,6.0,19.0,48,0.00,,,0.00,,2013-07-11 19:57:00,
2013-07-11 13:11:00,78.0,55.0,30.26,SW,219,7.0,16.0,45,0.00,,,0.00,,2013-07-11 20:11:00,
2013-07-11 13:33:00,78.0,54.0,30.26,SW,216,8.0,23.0,44,0.00,,,0.00,,2013-07-11 20:33:00,
2013-07-11 13:43:00,78.0,54.0,30.26,SW,216,8.0,23.0,44,0.00,,,0.00,,2013-07-11 20:43:00,
2013-07-11 13:54:00,79.0,53.0,30.25,SW,235,7.0,19.0,41,0.00,,,0.00,,2013-07-11 20:54:00,
2013-07-11 14:02:00,79.0,54.0,30.25,SSW,212,10.0,16.0,42,0.00,,,0.00,,2013-07-11 21:02:00,
2013-07-11 14:11:00,79.0,54.0,30.25,SSW,212,10.0,16.0,42,0.00,,,0.00,,2013-07-11 21:11:00,
2013-07-11 14:22:00,79.0,54.0,30.25,SSW,212,10.0,16.0,42,0.00,,,0.00,,2013-07-11 21:22:00,
2013-07-11 14:57:00,78.0,54.0,30.22,SW,216,11.0,18.0,43,0.00,,,0.00,,2013-07-11 21:57:00,
2013-07-11 15:03:00,78.0,54.0,30.22,SW,216,11.0,18.0,43,0.00,,,0.00,,2013-07-11 22:03:00,
2013-07-11 15:11:00,78.0,54.0,30.22,SW,216,11.0,18.0,43,0.00,,,0.00,,2013-07-11 22:11:00,
2013-07-11 15:21:00,78.0,54.0,30.22,SW,216,11.0,18.0,43,0.00,,,0.00,,2013-07-11 22:21:00,
2013-07-11 15:48:00,79.0,55.0,30.22,SW,229,11.0,19.0,43,0.00,,,0.00,,2013-07-11 22:48:00,
2013-07-11 15:54:00,79.0,55.0,30.22,SW,229,11.0,19.0,43,0.00,,,0.00,,2013-07-11 22:54:00,
2013-07-11 16:01:00,79.0,55.0,30.22,SW,229,11.0,19.0,43,0.00,,,0.00,,2013-07-11 23:01:00,
2013-07-11 16:44:00,77.0,55.0,30.20,SW,226,7.0,23.0,47,0.00,,,0.00,,2013-07-11 23:44:00,
2013-07-11 16:53:00,77.0,54.0,30.20,WSW,246,10.0,23.0,45,0.00,,,0.00,,2013-07-11 23:53:00,
2013-07-11 17:01:00,77.0,54.0,30.20,WSW,246,10.0,23.0,45,0.00,,,0.00,,2013-07-12 00:01:00,
2013-07-11 17:11:00,77.0,56.0,30.20,SW,223,8.0,18.0,48,0.00,,,0.00,,2013-07-12 00:11:00,
2013-07-11 17:22:00,76.0,56.0,30.20,WSW,251,10.0,21.0,50,0.00,,,0.00,,2013-07-12 00:22:00,
2013-07-11 17:33:00,73.0,56.0,30.21,WSW,250,6.0,18.0,55,0.00,,,0.00,,2013-07-12 00:33:00,
2013-07-11 17:43:00,74.0,57.0,30.21,West,264,7.0,19.0,55,0.00,,,0.00,,2013-07-12 00:43:00,
2013-07-11 17:52:00,73.0,56.0,30.21,WSW,237,8.0,18.0,56,0.00,,,0.00,,2013-07-12 00:52:00,
2013-07-11 18:01:00,73.0,57.0,30.21,WSW,237,12.0,21.0,57,0.00,,,0.00,,2013-07-12 01:01:00,
2013-07-11 18:11:00,73.0,57.0,30.21,WSW,237,12.0,21.0,57,0.00,,,0.00,,2013-07-12 01:11:00,
2013-07-11 18:22:00,72.0,56.0,30.21,SW,227,4.0,21.0,58,0.00,,,0.00,,2013-07-12 01:22:00,
2013-07-11 18:32:00,72.0,57.0,30.21,WSW,251,6.0,13.0,59,0.00,,,0.00,,2013-07-12 01:32:00,
2013-07-11 18:52:00,72.0,58.0,30.20,WSW,237,9.0,19.0,62,0.00,,,0.00,,2013-07-12 01:52:00,
2013-07-11 19:02:00,71.0,58.0,30.21,SW,223,8.0,19.0,64,0.00,,,0.00,,2013-07-12 02:02:00,
2013-07-11 19:11:00,70.0,59.0,30.21,SW,236,7.0,16.0,67,0.00,,,0.00,,2013-07-12 02:11:00,
2013-07-11 19:22:00,70.0,58.0,30.20,WSW,242,8.0,21.0,66,0.00,,,0.00,,2013-07-12 02:22:00,
2013-07-11 19:32:00,70.0,58.0,30.20,WSW,242,8.0,21.0,66,0.00,,,0.00,,2013-07-12 02:32:00,
2013-07-11 19:43:00,70.0,58.0,30.22,SW,236,6.0,16.0,66,0.00,,,0.00,,2013-07-12 02:43:00,
2013-07-11 19:52:00,69.0,57.0,30.21,WSW,245,7.0,20.0,66,0.00,,,0.00,,2013-07-12 02:52:00,
2013-07-11 20:13:00,69.0,57.0,30.20,SW,232,5.0,20.0,66,0.00,,,0.00,,2013-07-12 03:13:00,
2013-07-11 20:32:00,67.0,56.0,30.21,WSW,247,7.0,15.0,68,0.00,,,0.00,,2013-07-12 03:32:00,
2013-07-11 20:43:00,67.0,56.0,30.21,WSW,249,6.0,16.0,68,0.00,,,0.00,,2013-07-12 03:43:00,
2013-07-11 20:54:00,67.0,56.0,30.21,SW,233,4.0,19.0,69,0.00,,,0.00,,2013-07-12 03:54:00,
2013-07-11 21:01:00,67.0,56.0,30.22,WSW,237,7.0,13.0,68,0.00,,,0.00,,2013-07-12 04:01:00,
2013-07-11 21:11:00,67.0,56.0,30.22,WSW,253,5.0,19.0,68,0.00,,,0.00,,2013-07-12 04:11:00,
2013-07-11 21:21:00,67.0,56.0,30.22,SW,223,5.0,12.0,67,0.00,,,0.00,,2013-07-12 04:21:00,
2013-07-11 21:32:00,67.0,56.0,30.22,SW,223,5.0,12.0,67,0.00,,,0.00,,2013-07-12 04:32:00,
2013-07-11 21:43:00,67.0,56.0,30.24,West,262,3.0,14.0,68,0.00,,,0.00,,2013-07-12 04:43:00,
2013-07-11 21:53:00,67.0,56.0,30.24,West,262,3.0,14.0,68,0.00,,,0.00,,2013-07-12 04:53:00,
2013-07-11 22:02:00,67.0,56.0,30.25,WSW,246,5.0,11.0,69,0.00,,,0.00,,2013-07-12 05:02:00,
2013-07-11 22:11:00,67.0,56.0,30.25,WSW,238,1.0,11.0,69,0.00,,,0.00,,2013-07-12 05:11:00,
2013-07-11 22:22:00,67.0,56.0,30.25,WSW,238,1.0,11.0,69,0.00,,,0.00,,2013-07-12 05:22:00,
2013-07-11 22:32:00,68.0,57.0,30.25,WNW,291,9.0,21.0,67,0.00,,,0.00,,2013-07-12 05:32:00,
2013-07-11 22:42:00,68.0,56.0,30.26,NW,311,11.0,21.0,66,0.00,,,0.00,,2013-07-12 05:42:00,
2013-07-11 22:53:00,68.0,57.0,30.26,WNW,300,8.0,17.0,67,0.00,,,0.00,,2013-07-12 05:53:00,
2013-07-11 23:01:00,68.0,56.0,30.26,WNW,292,6.0,15.0,66,0.00,,,0.00,,2013-07-12 06:01:00,
2013-07-11 23:11:00,68.0,56.0,30.26,WNW,292,6.0,15.0,66,0.00,,,0.00,,2013-07-12 06:11:00,
2013-07-11 23:22:00,67.0,55.0,30.26,WNW,294,5.0,22.0,66,0.00,,,0.00,,2013-07-12 06:22:00,
2013-07-11 23:32:00,67.0,55.0,30.26,NNW,333,4.0,10.0,66,0.00,,,0.00,,2013-07-12 06:32:00,
2013-07-11 23:42:00,67.0,56.0,30.27,NNW,339,2.0,6.0,67,0.00,,,0.00,,2013-07-12 06:42:00,
2013-07-11 23:52:00,67.0,56.0,30.26,NW,309,6.0,12.0,67,0.00,,,0.00,,2013-07-12 06:52:00,